www.pogodaiklimat.ru

Погода и климат >> Архив погоды >> Россия >> Красноярский край >> Волочанка


ПОГОДА в Волочанке

  • Прогноз погоды в Волочанке
  • Монитор погоды в Волочанке

АРХИВ ПОГОДЫ в Волочанке

Время (UTC), дата Ветер
(напр.,м/с)
 
Видим.   Явления Облачность Т
(С)
Тd
(С)
f
(%)
Тe
(С)
Тes
(С)
Комфортность P
(гПа)
Po
(гПа)
Тmin
(С)
Tmax
(С)
R
(мм)
R24
(мм)
S
(см)
12 13.05 СВ 5 10 км позёмок 9/0 2000 м
[Ac As]
-5.2 -11.1 63 -12 -12 1023.2 -5.2 0.0
15 13.05 В 5 10 км слаб. снег {метель} 10/10 2000 м
[Sc]
-5.8 -9.2 77 -13 -13 1024.1
18 13.05 СВ 5 10 км слаб. снег {метель} 10/10 600 м
[Sc]
-7.4 -10.0 82 -15 -15 1024.4
21 13.05 В 6 10 км слаб. снег {метель} 10/10 600 м
[Sc]
-7.3 -9.8 82 -15 -15 1025.1
00 14.05 СВ 4 10 км слаб. снег {метель} 10/10 600 м
[Sc]
-6.7 -9.1 83 -13 -13 1025.7 -7.4 0.0 28
03 14.05 СВ 4 10 км позёмок {снег} 10/0 1500 м
[As op]
-6.0 -9.1 79 -12 -11 1025.9
06 14.05 В 4 50 км позёмок 10/0
[Ci fib]
-4.8 -9.7 69 -11 -7 1025.8
09 14.05 СВ 5 10 км позёмок 8/8 600 м
[Sc Ac As]
-4.1 -10.0 63 -11 -10 1025.5
12 14.05 СВ 5 10 км позёмок 8/6 600 м
[Sc Ac As Cs]
-5.3 -10.3 68 -12 -12 1025.5 -4.0 0.0
15 14.05 СВ 2 10 км {метель} 4/3 600 м
[Sc Cs]
-9.0 -12.9 73 -13 -13 1025.6
18 14.05 С 2 10 км {метель} 3/0
[Cs]
-14.6 -15.9 90 -20 -20 1024.9
21 14.05 С 2 10 км 3/0
[Cs]
-15.0 -17.0 85 -20 -20 1024.5
00 15.05 С 1 50 км 3/0
[Ci fib]
-11.5 -14.3 80 -14 -11 1024.0 -15.2 27
03 15.05 штиль 0 50 км 3/0
[Ci fib]
-7.4 -12.8 65 -8 +1 1023.9
06 15.05 СВ 1 50 км 3/0
[Ci fib]
-4.6 -11.7 58 -6 +3 1023.2
09 15.05 С 1 50 км 3/0
[Ci fib]
-3.8 -11.5 55 -6 +1 1022.9
12 15.05 СВ 3 50 км 3/0
[Ci fib]
-4.7 -10.9 62 -10 -8 1022.8 -3.7
15 15.05 В 2 50 км ясно -5.2 -10.6 66 -9 -9 1022.6
18 15.05 СВ 2 50 км ясно -12.3 -11.6 100 -17 -17 1022.6
21 15.05 СВ 2 50 км ясно -14.9 -16.9 85 -20 -19 1022.3
00 16.05 СВ 3 50 км ясно -3.0 -7.0 74 -8 -6 1022.3 -15.1 27
03 16.05 В 2 50 км 3/0
[Ci fib]
-9.6 -14.2 69 -14 -7 1022.0
06 16.05 СВ 2 50 км ясно -7.2 -13.0 63 -11 -2 1021.4
09 16.05 СВ 2 50 км ясно -4.6 -11.2 60 -8 -2 1021.4
12 16.05 СВ 3 10 км 3/0
[Ci fib]
-6.6 -11.6 68 -12 -10 1021.3 -4.3
15 16.05 СВ 4 50 км 3/0
[Ci fib]
-10.3 -14.6 71 -17 -17 1021.4
18 16.05 СВ 2 50 км ясно -14.6 -17.3 80 -20 -20 1020.9
00 17.05 В 2 50 км ясно -9.1 -14.1 67 -13 -11 1020.3 -15.5 27
06 17.05 В 4 50 км {метель} 1/0
[Ci fib]
-1.0 -9.3 53 -6 0 1020.0
12 17.05 В 4 50 км {метель} 3/0
[Ci fib]
0.0 -8.1 54 -5 -4 1020.8 +0.6
18 17.05 СВ 2 10 км 3/0
[Ci fib]
-8.4 -13.1 69 -13 -13 1020.8
00 18.05 В 2 50 км 3/0
[Ci fib]
-6.6 -12.2 64 -11 -8 1020.4 -8.8 27
12 18.05 В 3 50 км ясно +0.6 -6.7 58 -3 -2 1018.5 +1.0
00 19.05 В 3 50 км ясно -6.6 -11.2 70 -12 -10 1015.4 -9.1 26
12 19.05 СВ 4 50 км ясно -0.0 -6.5 62 -5 -4 1011.9 +3.9
00 20.05 В 5 50 км 6/0
[Ci]
-9.2 -13.2 73 -17 -16 1008.4 -11.5 26

 

Местоположение метеостанции Волочанка (Красноярский край, Россия): широта 70.97 долгота 94.50 высота над уровнем моря 40 м.

В архиве по умолчанию представлена погода в Волочанке за последнюю неделю. Архивные данные за месяц целиком и за предыдущие месяцы, начиная с января 2011 года, Вы можете получить, выбрав интересующий диапазон дат из раскрывающегося списка и нажав кнопку "Ввод!".


*Определитесь, кто Вы:
робот инопланетянин человек

Внимание! Время в таблицах - всемирное. Для получения местного времени необходимо прибавить поправку, которая равна 7 ч.

Смотрите также архив погоды в соседних городах и на ближайших метеорологических станциях:

Погода в Крестах Таймырских (Красноярский край, Россия) (168 км)
Погода в Норильске (Красноярский край, Россия) (297 км)
Погода в Хатанге (Красноярский край, Россия) (303 км)
Погода в Потапово (Красноярский край, Россия) (406 км)
Погода в Снежногорске (Красноярский край, Россия) (412 км)
Погода в Сопочной Карге (Красноярский край, Россия) (429 км)
Погода в Карауле (Красноярский край, Россия) (431 км)
Погода в Агате (Эвенкия, Россия) (457 км)
Погода в Горбиачине (Красноярский край, Россия) (468 км)
Погода в Игарке (Красноярский край, Россия) (499 км)

Пояснения к столбцам:

Ветер - указаны скорость ветра в м/с - средняя за 10 мин, порывы в срок и между сроками (в фигурных скобках) и направление, откуда дует ветер: С - северный, СВ - северо-восточный, В - восточный, ЮВ - юго-восточный, Ю - южный, ЮЗ - юго-западный, З - западный, СЗ - северо-западный.
Видимость - горизонтальная дальность видимости в метрах или километрах. При видимости от 1 до 10 км при отсутствии осадков обычно наблюдается дымка, при ухудшении видимости до 1 км и менее - туман. В сухую погоду видимость может ухудшаться дымом, пылью или мглою.
Явления - указаны атмосферные явления, наблюдавшиеся в срок или в последний час перед сроком; фигурными скобками обозначены явления, наблюдавшиеся между сроками (за 1-3 часа до срока); квадратными скобками обозначены град или гололедные отложения с указанием их диаметра в мм.
Облачность - указаны через наклонную черту общая и нижняя облачность в баллах и высота нижней границы облаков в метрах; квадратными скобками обозначены формы облаков: Ci - перистые, Cs - перисто-слоистые, Cc - перисто-кучевые, Ac - высококучевые, As - высокослоистые, Sc - слоисто-кучевые, Ns - слоисто-дождевые, Cu - кучевые, Cb - кучево-дождевые. Подробнее классификацию облаков см. в Атласе облаков (PDF).
T - Температура воздуха - температура, измеренная на высоте 2 м над землей.
Td - Температура точки росы - температура, при понижении до которой содержащийся в воздухе водяной пар достигнет насыщения.
f - Относительная влажность воздуха - влажноcть воздуха, измеренная на высоте 2 м над землей.
Te - Эффективная температура - температура, которую ощущает одетый по сезону человек в тени. Характеристика душности погоды. При расчете учитывается влияние влажности воздуха и скорости ветра на теплоощущения человека.
Tes - Эффективная температура на солнце - температура, которую ощущает человек, с поправкой на солнечный нагрев. Характеристика знойности погоды. Зависит от высоты солнца над горизонтом, облачности и скорости ветра. Ночью, в пасмурную погоду, а также при ветре 12 м/с и более поправка равна нулю.
P - Атмосферное давление - приведенное к уровню моря атмосферное давление.
Po - Атмосферное давление - измеренное на уровне метеостанции атмосферное давление.
Tmin - Минимальная температура - минимум температуры воздуха на высоте 2 м над землей.
Tmax - Максимальная температура - максимум температуры воздуха на высоте 2 м над землей.
R - Количество осадков - Количество выпавших осадков за период времени, мм. При наведении курсора мыши на число - период времени, за который выпало указанное количество осадков.
R24 - Количество осадков - Количество выпавших осадков за 24 часа, мм.
S - Снежный покров - Высота снежного покрова, см. При наведении курсора мыши на число - состояние снежного покрова и степень покрытия местности в баллах.